Location: Kam�li
(14.6864°N, 3.1482°W)
Time: 01:51:27
(UTC+00:00)

SKYMED 2 - Pass Details

Date: 29 October 2020
Orbit: 621 x 623 km, 97.9° (Epoch: 02 December)

Event Time Altitude Azimuth Distance (km) Brightness Sun altitude
Rises 17:58:03 0° 12° (NNE) 2,891 6.7 -3.9°
Reaches altitude 10° 18:00:14 10° 13° (NNE) 1,984 5.9 -4.4°
Maximum altitude 18:04:33 84° 101° (E) 627 3.6 -5.4°
Drops below altitude 10° 18:08:52 10° 190° (S) 1,981 6.5 -6.4°
Sets 18:11:03 0° 191° (S) 2,886 7.3 -6.9°
